TimeCST,TemperatureF,Dew PointF,Humidity,Sea Level PressureIn,VisibilityMPH,Wind Direction,Wind SpeedMPH,Gust SpeedMPH,PrecipitationIn,Events,Conditions,WindDirDegrees,DateUTC
12:45 AM,10.9,6.1,81,30.29,10.0,SSE,6.9,-,N/A,,Mostly Cloudy,160,2014-02-11 06:45:00
12:53 AM,10.0,5.0,80,30.42,10.0,South,6.9,-,N/A,,Scattered Clouds,170,2014-02-11 06:53:00
1:12 AM,10.0,6.1,84,30.29,10.0,South,3.5,-,N/A,,Mostly Cloudy,180,2014-02-11 07:12:00
1:53 AM,10.9,7.0,84,30.42,10.0,South,4.6,-,N/A,,Overcast,170,2014-02-11 07:53:00
2:53 AM,10.9,7.0,84,30.40,10.0,SSE,9.2,-,N/A,,Overcast,150,2014-02-11 08:53:00
3:53 AM,12.0,7.0,80,30.37,10.0,South,10.4,-,N/A,,Overcast,170,2014-02-11 09:53:00
4:53 AM,12.0,8.1,84,30.35,9.0,South,10.4,-,N/A,,Overcast,170,2014-02-11 10:53:00
5:53 AM,12.9,9.0,84,30.35,10.0,South,9.2,-,N/A,,Overcast,170,2014-02-11 11:53:00
6:15 AM,14.0,9.0,80,30.22,10.0,South,10.4,-,N/A,,Overcast,170,2014-02-11 12:15:00
6:45 AM,14.0,9.0,80,30.21,10.0,South,11.5,-,N/A,,Overcast,180,2014-02-11 12:45:00
6:53 AM,14.0,9.0,80,30.32,10.0,South,13.8,-,N/A,,Overcast,180,2014-02-11 12:53:00
7:53 AM,14.0,10.0,84,30.32,7.0,South,15.0,-,N/A,,Overcast,190,2014-02-11 13:53:00
8:53 AM,14.0,10.0,84,30.31,6.0,South,15.0,-,N/A,,Overcast,180,2014-02-11 14:53:00
9:28 AM,15.1,10.0,80,30.17,9.0,South,12.7,-,N/A,,Overcast,190,2014-02-11 15:28:00
9:44 AM,16.0,10.9,81,30.17,9.0,South,15.0,-,N/A,,Overcast,180,2014-02-11 15:44:00
9:53 AM,16.0,10.9,81,30.29,9.0,South,15.0,-,N/A,,Overcast,180,2014-02-11 15:53:00
10:53 AM,17.1,12.0,81,30.27,8.0,South,17.3,-,N/A,,Overcast,180,2014-02-11 16:53:00
11:10 AM,18.0,12.0,78,30.16,9.0,South,16.1,-,N/A,,Overcast,190,2014-02-11 17:10:00
11:40 AM,19.0,14.0,81,30.14,8.0,South,15.0,-,N/A,,Overcast,190,2014-02-11 17:40:00
11:53 AM,19.9,14.0,78,30.25,8.0,South,16.1,-,N/A,,Overcast,180,2014-02-11 17:53:00
12:48 PM,21.2,15.8,80,30.09,7.0,South,17.3,25.3,N/A,,Overcast,190,2014-02-11 18:48:00
12:53 PM,21.0,16.0,81,30.20,7.0,South,19.6,-,N/A,,Overcast,190,2014-02-11 18:53:00
1:33 PM,24.1,17.1,75,30.04,8.0,South,23.0,-,N/A,,Scattered Clouds,190,2014-02-11 19:33:00
1:53 PM,24.1,18.0,77,30.13,7.0,South,18.4,-,N/A,,Partly Cloudy,190,2014-02-11 19:53:00
2:45 PM,25.0,19.0,78,30.01,7.0,SSW,16.1,-,N/A,,Mostly Cloudy,200,2014-02-11 20:45:00
2:53 PM,25.0,19.0,78,30.11,7.0,South,19.6,-,N/A,,Mostly Cloudy,190,2014-02-11 20:53:00
3:29 PM,27.0,21.0,78,29.99,7.0,South,16.1,-,N/A,,Overcast,190,2014-02-11 21:29:00
3:53 PM,27.0,21.0,78,30.09,7.0,SSW,17.3,-,N/A,,Mostly Cloudy,210,2014-02-11 21:53:00
4:01 PM,27.0,21.0,78,29.98,7.0,South,18.4,-,N/A,,Scattered Clouds,190,2014-02-11 22:01:00
4:53 PM,28.0,21.9,78,30.05,7.0,South,18.4,-,N/A,,Clear,190,2014-02-11 22:53:00
5:53 PM,28.0,23.0,81,30.04,6.0,SSW,16.1,-,N/A,,Haze,200,2014-02-11 23:53:00
6:27 PM,28.0,24.1,85,29.95,8.0,SSW,16.1,-,N/A,,Mostly Cloudy,200,2014-02-12 00:27:00
6:53 PM,28.0,23.0,81,30.05,9.0,South,15.0,-,N/A,,Scattered Clouds,190,2014-02-12 00:53:00
7:53 PM,26.1,21.0,81,30.04,10.0,SE,9.2,-,N/A,,Clear,140,2014-02-12 01:53:00
8:53 PM,25.0,21.0,85,30.04,9.0,South,6.9,-,N/A,,Scattered Clouds,170,2014-02-12 02:53:00
9:53 PM,26.1,21.0,81,30.03,9.0,South,6.9,-,N/A,,Scattered Clouds,180,2014-02-12 03:53:00
10:53 PM,26.1,21.9,84,30.01,9.0,SSE,4.6,-,N/A,,Mostly Cloudy,160,2014-02-12 04:53:00
11:53 PM,25.0,21.9,88,30.00,8.0,Calm,Calm,-,N/A,,Partly Cloudy,0,2014-02-12 05:53:00